{"data":{"norad_id":62858,"epoch":"2026-09-20T13:45:52.380288Z","epoch_age_seconds":162293,"freshness":"FRESH","line1":"1 62858U 25022E   26263.57352292  .00013996  00000+0  42464-3 0  9994","line2":"2 62858  53.1587 299.7206 0000979  77.8863 282.2250 15.34395604 91808","mean_motion":15.34395604,"eccentricity":9.79e-5,"inclination_deg":53.1587,"raan_deg":299.7206,"arg_perigee_deg":77.8863,"mean_anomaly_deg":282.225,"bstar":0.00042464,"rev_number":9180,"period_min":93.848026952507,"perigee_km":462.04658653805,"apogee_km":463.38602561538,"semimajor_km":6840.8533060767,"source":"CELESTRAK","updated_at":"2026-09-22T09:00:49.676320Z"}}